Regional Weather Roundup
Issued by NWS

Home | Current Version | Previous Version | Graphics & Text | Print | Product List | Glossary On
Versions: 1 2 3 4 5 6 7 8 9 10 11 12 13 14 15 16 17 18 19 20 21 22 23 24 25 26 27 28 29 30 31 32 33 34 35 36 37 38 39 40 41 42 43 44 45 46 47 48 49 50
000
ASUS43 KIND 061915
RWRIN

WEATHER ROUNDUP FOR INDIANA
NATIONAL WEATHER SERVICE INDIANAPOLIS IN
200 PM EST TUE DEC 06 2016

NOTE: "FAIR" INDICATES FEW OR NO CLOUDS BELOW 12,000 FEET WITH NO
SIGNIFICANT WEATHER AND/OR OBSTRUCTIONS TO VISIBILITY.

* - STATION DOES NOT REPORT WEATHER SUCH AS PRECIPITATION OR FOG.

+ - STATION NOT QUALITY CONTROLLED BY THE NATIONAL WEATHER SERVICE.
    USE DATA WITH CAUTION...ESPECIALLY DEWPOINT AND RELATIVE
    HUMIDITY OBSERVATIONS.

INZ001>003-010>013-019-020-062000-
NORTHWEST INDIANA

CITY           SKY/WX    TMP DP  RH WIND       PRES   REMARKS
GARY /AIRPORT/ MOSUNNY   41  32  70 W12       29.74S
KNOX *+        MOSUNNY   37  19  48 W6        29.72F
LA PORTE +     SUNNY     38  37  96 SW5       29.73S
MICHIGAN CITY+ SUNNY     37  32  81 SW6       29.73S
MONTICELLO +   CLOUDY    39  32  76 W8        29.73F
RENSSELAER +   PTSUNNY   36  34  93 W10       29.75S FOG
VALPARAISO     SUNNY     37  30  75 SW9       29.73F

$$

LMZ046-743>745-062000-
SOUTHERN LAKE MICHIGAN

STATION/POSITION TIME  TEMP    WIND        PRES    WAVE
                       AIR SEA DIR/SP/G            HT
                 (UTC) (F)     (DEG/KT/KT) (MB)    (FT)

$$

INZ004-005-014>016-021>024-062000-
NORTH CENTRAL INDIANA

CITY           SKY/WX    TMP DP  RH WIND       PRES   REMARKS
ELKHART        CLOUDY    41  32  70 CALM      29.70F
GOSHEN         CLOUDY   N/A N/A N/A CALM      29.70F
LOGANSPORT +   CLOUDY    39  34  81 W6        29.72F
ROCHESTER +    CLOUDY    41  36  81 W7        29.71F
SOUTH BEND     CLOUDY    38  32  79 CALM      29.72F
WARSAW +       CLOUDY    37  30  75 CALM      29.71F

$$

INZ006>009-017-018-025>027-062000-
NORTHEAST INDIANA

CITY           SKY/WX    TMP DP  RH WIND       PRES   REMARKS
AUBURN +       CLOUDY    36  32  87 NW5       29.72S
FORT WAYNE     CLOUDY    36  32  85 NW6       29.72S
HUNTINGTON +   CLOUDY    36  34  92 CALM      29.71F
KENDALLVILLE + CLOUDY    36  32  87 CALM      29.71S

$$

INZ028-029-035-036-043>045-051>053-062000-
WEST CENTRAL INDIANA

CITY           SKY/WX    TMP DP  RH WIND       PRES   REMARKS
CRAWFORDSVL +  CLOUDY    39  38  94 W13       29.74F
GREENCASTLE +  CLOUDY    41  37  87 NW6       29.74S
LAFAYETTE      CLOUDY    40  36  86 W13       29.75S
TERRE HAUTE    CLOUDY    42  36  79 NW13      29.78S

$$

INZ030>032-037>040-046>048-054>057-064-065-062000-
CENTRAL INDIANA

CITY           SKY/WX    TMP DP  RH WIND       PRES   REMARKS
ANDERSON       CLOUDY    37  36  93 W6        29.72S FOG
COLUMBUS       CLOUDY    41  41 100 NW9       29.73F
FISHERS *+     CLOUDY    39  39 100 NW9       29.72S
FRANKFORT +    CLOUDY    43  38  83 W12       29.74F
GREENWOOD *+   CLOUDY    42  40  90 NW8       29.73R
INDIANAPOLIS   CLOUDY    42  37  82 NW13      29.72F
-EAGLE CREEK   CLOUDY    43  37  79 W12       29.71F
KOKOMO +       CLOUDY    39  35  86 W10       29.72F FOG
MARION +       CLOUDY    36  34  90 W7        29.72F
MT COMFORT *+  CLOUDY    39  37  93 NW8       29.72S
SHELBYVILLE    CLOUDY    42  38  85 NW10      29.72R FOG
ZIONSVILLE +   CLOUDY    39  36  87 NW9       29.72F FOG

$$

INZ033-034-041-042-049-050-058-059-062000-
EAST CENTRAL INDIANA

CITY           SKY/WX    TMP DP  RH WIND       PRES   REMARKS
MUNCIE         CLOUDY    38  35  89 W8        29.71S FOG

$$

INZ060-061-067>069-081>083-085>088-062000-
SOUTHWEST INDIANA

CITY           SKY/WX    TMP DP  RH WIND       PRES   REMARKS
EVANSVILLE     CLOUDY    44  39  82 NW14G23   29.82R HAZE
HUNTINGBURG *+ CLOUDY    45  41  87 NW14      29.77S
WASHINGTON +   CLOUDY    43  42  96 NW15      29.78R

$$

INZ062-063-066-070>080-084-089>092-062000-
SOUTH CENTRAL AND SOUTHEAST INDIANA

CITY           SKY/WX    TMP DP  RH WIND       PRES   REMARKS
BLOOMINGTON    CLOUDY    43  38  82 NW5       29.73F
MADISON *+     CLOUDY    43  39  87 W13       29.72R
NORTH VERNON + CLOUDY   N/A N/A N/A NW12      29.71R
SEYMOUR +      CLOUDY    43  41  93 NW10G16   29.74R

$$





USA.gov is the U.S. government's official web portal to all federal, state and local government web resources and services.